This demonstration page uses our WeatherBlox Daily Observations layout. Learn more.

Left ArrowRight Arrow

Hourly Observations for November 4, 2021

Temp ( °F °C ) Dew Point ( °F °C ) Humidity (%) Winds ( mph kmh ) Pressure ( in mb ) Visibility ( mi km ) Precip ( " mm )
12:15 am 00:15 Clear with Mist and Fog 35 1.5 34 1.1 97 97 Calm 30.28 1025 3 5 0.00 0.00
12:35 am 00:35 Mostly Cloudy with Freezing Fog 31 -0.3 31 -0.7 97 97 Calm 30.30 1026 1 1 0.00 0.00
12:55 am 00:55 Cloudy with Freezing Fog 30 -1.1 29 -1.4 98 98 Calm 30.31 1026 0 0 0.00 0.00
1:15 am 01:15 Cloudy with Freezing Fog 29 -1.5 29 -1.9 97 97 Calm 30.31 1027 0 0 0.00 0.00
1:35 am 01:35 Cloudy with Freezing Fog 29 -1.8 28 -2 99 99 Calm 30.32 1027 0 0 0.00 0.00
1:55 am 01:55 Cloudy with Freezing Fog 28 -2.1 28 -2.5 97 97 Calm 30.32 1027 0 0 0.00 0.00
2:15 am 02:15 Cloudy with Freezing Fog 28 -2.1 28 -2.5 97 97 Calm 30.31 1026 0 0 0.00 0.00
2:35 am 02:35 Cloudy with Freezing Fog 28 -2.3 27 -2.8 96 96 Calm 30.31 1026 1 1 0.00 0.00
2:55 am 02:55 Cloudy with Freezing Fog 27 -2.9 26 -3.5 96 96 Calm 30.31 1026 0 0 0.00 0.00
3:15 am 03:15 Cloudy with Freezing Fog 27 -3 26 -3.5 96 96 Calm 30.31 1026 1 1 0.00 0.00
3:35 am 03:35 Cloudy with Freezing Fog 27 -2.8 26 -3.3 96 96 Calm 30.31 1026 1 1 0.00 0.00
3:55 am 03:55 Cloudy with Freezing Fog 27 -3 26 -3.5 96 96 Calm 30.31 1026 1 1 0.00 0.00
4:15 am 04:15 Cloudy with Mist and Fog 27 -2.9 26 -3.4 96 96 Calm 30.30 1026 1 2 0.00 0.00
4:35 am 04:35 Cloudy with Freezing Fog 28 -2.5 27 -3 96 96 Calm 30.29 1026 1 1 0.00 0.00
4:55 am 04:55 Mostly Cloudy with Mist and Fog 27 -2.9 26 -3.5 96 96 Calm 30.29 1026 4 6 0.00 0.00
5:15 am 05:15 Partly Cloudy 27 -3 26 -3.5 96 96 Calm 30.29 1026 7 11 0.00 0.00
5:35 am 05:35 Mostly Cloudy with Mist and Fog 27 -2.7 26 -3.2 96 96 W 5 7 30.27 1025 3 5 0.00 0.00
5:55 am 05:55 Mostly Cloudy 28 -2.2 27 -2.7 96 96 W 5 7 30.28 1025 7 11 0.00 0.00
6:15 am 06:15 Partly Cloudy with Mist and Fog 28 -2.5 27 -3 96 96 WNW 6 9 30.28 1025 1 2 0.00 0.00
6:35 am 06:35 Clear 27 -2.7 26 -3.2 96 96 WNW 5 7 30.28 1026 7 11 0.00 0.00
6:55 am 06:55 Partly Cloudy 27 -2.6 26 -3.2 96 96 WNW 3 6 30.27 1025 7 11 0.00 0.00
7:15 am 07:15 Partly Cloudy with Mist and Fog 27 -2.6 26 -3.1 96 96 NNW 3 6 30.27 1025 3 5 0.00 0.00
7:35 am 07:35 Clear with Mist and Fog 27 -3 26 -3.5 96 96 W 5 7 30.29 1026 5 8 0.00 0.00
7:55 am 07:55 Partly Cloudy 27 -3 26 -3.5 96 96 Calm 30.28 1025 7 11 0.00 0.00
8:35 am 08:35 Mostly Cloudy 27 -2.9 26 -3.5 96 96 WNW 5 7 30.28 1025 10 16 0.00 0.00
8:55 am 08:55 Cloudy with Freezing Fog 29 -1.8 28 -2.2 97 97 Calm 30.27 1025 0 0 0.00 0.00
9:15 am 09:15 Cloudy with Freezing Fog 30 -1.1 29 -1.5 97 97 Calm 30.26 1025 N/A 0.00 0.00
9:35 am 09:35 Mostly Cloudy with Mist and Fog 32 -0.2 31 -0.6 97 97 Calm 30.25 1024 2 3 0.00 0.00
9:55 am 09:55 Sunny with Mist and Fog 33 0.5 33 0.4 99 99 Calm 30.24 1024 3 5 0.00 0.00
10:15 am 10:15 Sunny with Mist and Fog 36 2.1 35 1.9 99 99 Calm 30.22 1023 4 6 0.00 0.00
10:35 am 10:35 Sunny 39 3.8 38 3.6 99 99 Calm 30.20 1023 7 11 0.00 0.00
10:55 am 10:55 Sunny 41 5.2 41 5 99 99 Calm 30.18 1022 7 11 0.00 0.00
11:15 am 11:15 Sunny 43 6.1 42 5.6 97 97 SE 3 6 30.17 1022 10 16 0.00 0.00
11:35 am 11:35 Sunny 46 8 45 7.2 95 95 SE 5 7 30.15 1021 10 16 0.00 0.00
11:55 am 11:55 Sunny 49 9.6 47 8.2 91 91 SSW 3 6 30.13 1020 10 16 0.00 0.00
12:15 pm 12:15 Sunny 56 13.1 46 7.7 70 70 S 3 6 30.10 1019 10 16 0.00 0.00
12:35 pm 12:35 Sunny 58 14.5 42 5.7 56 56 S 8 13 30.08 1019 10 16 0.00 0.00
12:55 pm 12:55 Sunny 59 15 37 2.7 44 44 SSW 9 15 30.07 1018 10 16 0.00 0.00
1:15 pm 13:15 Sunny 60 15.3 37 3 44 44 S 9 15 30.06 1018 10 16 0.00 0.00
1:35 pm 13:35 Sunny 60 15.6 38 3.4 44 44 S 9 15 30.05 1018 10 16 0.00 0.00
1:55 pm 13:55 Sunny 60 15.7 38 3.2 43 43 SSE 12 19 30.03 1017 10 16 0.00 0.00
2:15 pm 14:15 Sunny 61 16 38 3.5 43 43 SSE 10 17 30.02 1016 10 16 0.00 0.00
2:35 pm 14:35 Sunny 61 15.9 39 3.7 44 44 SSE 13 20 30.01 1016 10 16 0.00 0.00
2:55 pm 14:55 Sunny 61 16 40 4.2 46 46 S 13 20 30.00 1016 10 16 0.00 0.00
3:15 pm 15:15 Sunny 61 16.1 41 4.8 47 47 SSW 12 19 30.00 1016 10 16 0.00 0.00
3:35 pm 15:35 Sunny 62 16.8 42 5.3 47 47 S 12 19 29.98 1015 10 16 0.00 0.00
3:55 pm 15:55 Sunny 63 17.1 42 5.3 46 46 S 10 17 29.98 1015 10 16 0.00 0.00
4:15 pm 16:15 Sunny 64 17.5 40 4.7 43 43 S 10 17 29.96 1015 10 16 0.00 0.00
4:35 pm 16:35 Sunny 64 18 39 4 40 40 S 9 15 29.95 1014 10 16 0.00 0.00
4:55 pm 16:55 Sunny 65 18.1 39 3.9 39 39 S 10 17 29.95 1014 10 16 0.00 0.00
5:15 pm 17:15 Sunny 63 17.3 42 5.5 46 46 SSE 10 17 29.95 1014 10 16 0.00 0.00
5:35 pm 17:35 Sunny 62 16.5 42 5.8 49 49 SSE 10 17 29.95 1014 10 16 0.00 0.00
5:55 pm 17:55 Sunny 60 15.3 42 5.8 53 53 SSE 10 17 29.95 1014 10 16 0.00 0.00
6:15 pm 18:15 Sunny 58 14.4 42 5.5 55 55 SSE 9 15 29.96 1015 10 16 0.00 0.00
6:35 pm 18:35 Clear 56 13.2 42 5.6 60 60 SSE 10 17 29.97 1015 10 16 0.00 0.00
6:55 pm 18:55 Clear 54 12 42 5.7 66 66 SSE 12 19 29.98 1015 10 16 0.00 0.00
7:15 pm 19:15 Clear 52 11.2 42 5.6 69 69 SSE 9 15 30.00 1016 10 16 0.00 0.00
7:35 pm 19:35 Clear 52 10.9 42 5.6 70 70 SE 9 15 30.00 1016 10 16 0.00 0.00
7:55 pm 19:55 Clear 51 10.6 42 5.5 71 71 SE 9 15 30.01 1016 10 16 0.00 0.00
8:15 pm 20:15 Clear 51 10.4 42 5.5 72 72 SE 10 17 30.01 1016 10 16 0.00 0.00
8:35 pm 20:35 Clear 50 9.9 42 5.5 74 74 SE 10 17 30.00 1016 10 16 0.00 0.00
8:55 pm 20:55 Clear 48 9.1 42 5.3 77 77 SSE 8 13 30.01 1016 10 16 0.00 0.00
9:15 pm 21:15 Clear 49 9.6 42 5.5 76 76 SSE 13 20 29.99 1016 10 16 0.00 0.00
9:35 pm 21:35 Clear 49 9.7 42 5.7 76 76 SSE 14 22 29.99 1016 10 16 0.00 0.00
9:55 pm 21:55 Clear 49 9.5 42 5.7 77 77 S 12 19 30.00 1016 10 16 0.00 0.00
10:15 pm 22:15 Clear 49 9.3 42 5.5 77 77 S 14 22 29.99 1015 10 16 0.00 0.00
10:35 pm 22:35 Clear 49 9.5 42 5.6 77 77 S 14 22 29.99 1015 10 16 0.00 0.00
10:55 pm 22:55 Clear 49 9.2 42 5.5 78 78 S 12 19 30.00 1016 10 16 0.00 0.00
11:15 pm 23:15 Clear 48 9 42 5.3 78 78 S 13 20 29.99 1016 10 16 0.00 0.00
11:35 pm 23:35 Clear 47 8.5 41 5.1 79 79 S 13 20 30.00 1016 10 16 0.00 0.00
11:55 pm 23:55 Clear 46 8 40 4.7 80 80 S 9 15 30.00 1016 10 16 0.00 0.00

Powered by AerisWeather